Breckenridge, CO

7:31 AM MST on February 12, 2016 (GMT -0700)
Copper Mountain

Weather History for KCCU - September, 2013

Change the Weather History Date:

Friday, September 20, 2013

  Actual Average Record
Temperature  
Mean Temperature 48 °F -  
Max Temperature 59 °F - 64 °F (2014)
Min Temperature 37 °F - 26 °F (2002)
Degree Days  
Heating Degree Days 17    
Month to date heating degree days  
Cooling Degree Days 0    
Month to date cooling degree days  
Moisture  
Dew Point 16 °F    
Average Humidity 32    
Maximum Humidity 56    
Minimum Humidity 7    
Precipitation  
Precipitation 0.00 in - 0.04 in (2004)
Sea Level Pressure  
Sea Level Pressure 30.49 in    
Wind  
Wind Speed 14 mph (WSW)    
Max Wind Speed 21 mph    
Max Gust Speed 28 mph    
Visibility 10 miles    
Events      
T = Trace of Precipitation, MM = Missing Value Source: NWS Daily Summary

Daily Weather History Graph

Daily Weather History Graph

Search for Another Location

Airport or City:

Trip Planner

Search our weather history database for the weather conditions in past years. The results will help you decide how hot, cold, wet, or windy it might be!

Date:

Astronomy

Sep. 20, 2013 Rise Set
Actual Time 6:50 AM MDT 7:04 PM MDT
Civil Twilight 6:23 AM MDT 7:31 PM MDT
Nautical Twilight 5:52 AM MDT 8:02 PM MDT
Astronomical Twilight 5:20 AM MDT 8:34 PM MDT
Moon 7:40 PM MDT (9/20) 8:07 AM MDT (9/20)
Length of Visible Light 13h 07m
Length of Day
12h 13m
Full, 98% of the Moon is Illuminated
Sep 20
Full
Sep 26
Last Quarter
Oct 4
New
Oct 11
First Quarter
Oct 18
Full

Hourly Weather History & Observations

Time (MDT) Temp. Windchill Dew Point Humidity Pressure Visibility Wind Dir Wind Speed Gust Speed Precip Events Conditions
12:14 AM 41.0 °F 33.5 °F 21.2 °F 45% 30.48 in 10.0 mi South 13.8 mph - N/A   Clear
12:26 AM 41.0 °F 33.1 °F 21.2 °F 45% 30.48 in 10.0 mi South 15.0 mph - N/A   Clear
12:54 AM 41.0 °F 32.2 °F 21.2 °F 45% 30.48 in 10.0 mi South 18.4 mph - N/A   Clear
1:14 AM 41.0 °F 32.5 °F 21.2 °F 45% 30.47 in 10.0 mi South 17.3 mph - N/A   Clear
1:34 AM 41.0 °F 32.2 °F 21.2 °F 45% 30.47 in 10.0 mi South 18.4 mph - N/A   Clear
1:54 AM 41.0 °F 32.5 °F 21.2 °F 45% 30.47 in 10.0 mi South 17.3 mph 20.7 mph N/A   Clear
2:14 AM 39.2 °F 32.5 °F 19.4 °F 45% 30.47 in 10.0 mi South 10.4 mph 18.4 mph N/A   Clear
2:34 AM 37.4 °F 30.3 °F 21.2 °F 52% 30.47 in 10.0 mi SSW 10.4 mph 19.6 mph N/A   Clear
2:54 AM 37.4 °F 30.3 °F 23.0 °F 56% 30.47 in 10.0 mi South 10.4 mph - N/A   Clear
3:14 AM 37.4 °F 28.9 °F 23.0 °F 56% 30.46 in 10.0 mi South 13.8 mph - N/A   Clear
3:34 AM 37.4 °F 28.2 °F 23.0 °F 56% 30.47 in 10.0 mi South 16.1 mph - N/A   Clear
3:54 AM 37.4 °F 29.3 °F 23.0 °F 56% 30.47 in 10.0 mi South 12.7 mph - N/A   Clear
4:14 AM 37.4 °F 28.5 °F 23.0 °F 56% 30.47 in 10.0 mi South 15.0 mph - N/A   Clear
4:34 AM 37.4 °F 29.3 °F 21.2 °F 52% 30.47 in 10.0 mi South 12.7 mph - N/A   Clear
4:54 AM 37.4 °F 28.2 °F 23.0 °F 56% 30.47 in 10.0 mi South 16.1 mph - N/A   Clear
5:14 AM 37.4 °F 28.2 °F 21.2 °F 52% 30.47 in 10.0 mi South 16.1 mph - N/A   Clear
5:34 AM 37.4 °F 28.2 °F 21.2 °F 52% 30.47 in 10.0 mi South 16.1 mph - N/A   Clear
5:54 AM 37.4 °F 28.2 °F 21.2 °F 52% 30.47 in 10.0 mi South 16.1 mph - N/A   Clear
6:14 AM 37.4 °F 29.3 °F 17.6 °F 45% 30.47 in 10.0 mi South 12.7 mph - N/A   Clear
6:34 AM 37.4 °F 28.9 °F 15.8 °F 41% 30.48 in 10.0 mi South 13.8 mph - N/A   Clear
6:49 AM 37.4 °F 32.1 °F 14.0 °F 38% 30.48 in 10.0 mi SSW 6.9 mph 16.1 mph N/A   Clear
7:54 AM 41.0 °F 38.0 °F 8.6 °F 26% 30.48 in 10.0 mi SW 4.6 mph - N/A   Clear
8:14 AM 42.8 °F 39.3 °F 10.4 °F 27% 30.49 in 10.0 mi SSW 5.8 mph - N/A   Clear
8:34 AM 44.6 °F 42.2 °F 12.2 °F 27% 30.49 in 10.0 mi West 4.6 mph - N/A   Clear
8:54 AM 46.4 °F 42.4 °F 17.6 °F 32% 30.49 in 10.0 mi SSE 8.1 mph - N/A   Clear
9:14 AM 46.4 °F 43.5 °F 14.0 °F 27% 30.50 in 10.0 mi South 5.8 mph - N/A   Clear
9:34 AM 44.6 °F 41.4 °F 17.6 °F 34% 30.50 in 10.0 mi West 5.8 mph - N/A   Clear
9:54 AM 50.0 °F - 21.2 °F 32% 30.51 in 10.0 mi NW 5.8 mph - N/A   Clear
10:14 AM 44.6 °F 39.7 °F 21.2 °F 39% 30.51 in 10.0 mi West 9.2 mph 17.3 mph N/A   Clear
10:34 AM 46.4 °F 41.9 °F 19.4 °F 34% 30.52 in 10.0 mi West 9.2 mph - N/A   Clear
10:54 AM 51.8 °F - 14.0 °F 22% 30.52 in 10.0 mi SW 5.8 mph 18.4 mph N/A   Clear
11:14 AM 53.6 °F - 14.0 °F 21% 30.52 in 10.0 mi West 10.4 mph - N/A   Clear
11:34 AM 53.6 °F - 14.0 °F 21% 30.52 in 10.0 mi West 15.0 mph - N/A   Clear
11:54 AM 53.6 °F - 10.4 °F 18% 30.51 in 10.0 mi West 9.2 mph 16.1 mph N/A   Clear
12:14 PM 53.6 °F - 8.6 °F 16% 30.51 in 10.0 mi West 11.5 mph 18.4 mph N/A   Clear
12:34 PM 53.6 °F - 6.8 °F 15% 30.51 in 10.0 mi West 18.4 mph 23.0 mph N/A   Clear
12:54 PM 53.6 °F - 5.0 °F 14% 30.51 in 10.0 mi West 16.1 mph 23.0 mph N/A   Clear
1:14 PM 53.6 °F - 3.2 °F 13% 30.51 in 10.0 mi West 15.0 mph 21.9 mph N/A   Clear
1:34 PM 53.6 °F - 5.0 °F 14% 30.51 in 10.0 mi West 19.6 mph - N/A   Clear
1:54 PM 55.4 °F - 1.4 °F 11% 30.50 in 10.0 mi West 15.0 mph 25.3 mph N/A   Clear
2:14 PM 55.4 °F - 3.2 °F 12% 30.50 in 10.0 mi West 17.3 mph 20.7 mph N/A   Clear
2:34 PM 55.4 °F - -4.0 °F 9% 30.50 in 10.0 mi West 16.1 mph 26.5 mph N/A   Clear
2:54 PM 55.4 °F - -7.6 °F 7% 30.49 in 10.0 mi West 19.6 mph 27.6 mph N/A   Clear
3:14 PM 59.0 °F - 6.8 °F 13% 30.50 in 10.0 mi West 16.1 mph 23.0 mph N/A   Clear
3:34 PM 59.0 °F - 10.4 °F 15% 30.49 in 10.0 mi West 19.6 mph 24.2 mph N/A   Clear
3:54 PM 59.0 °F - 10.4 °F 15% 30.49 in 10.0 mi West 18.4 mph - N/A   Clear
4:14 PM 59.0 °F - 12.2 °F 16% 30.49 in 10.0 mi West 15.0 mph 20.7 mph N/A   Clear
4:34 PM 59.0 °F - 12.2 °F 16% 30.49 in 10.0 mi West 17.3 mph 21.9 mph N/A   Clear
4:54 PM 59.0 °F - 12.2 °F 16% 30.49 in 10.0 mi WNW 15.0 mph - N/A   Clear
5:14 PM 57.2 °F - 12.2 °F 17% 30.49 in 10.0 mi West 18.4 mph - N/A   Clear
5:34 PM 55.4 °F - 10.4 °F 17% 30.49 in 10.0 mi West 17.3 mph - N/A   Clear
5:54 PM 55.4 °F - 14.0 °F 20% 30.48 in 10.0 mi West 17.3 mph - N/A   Clear
6:14 PM 53.6 °F - 15.8 °F 22% 30.48 in 10.0 mi West 17.3 mph - N/A   Clear
6:34 PM 53.6 °F - 19.4 °F 26% 30.48 in 10.0 mi West 18.4 mph - N/A   Clear
6:54 PM 51.8 °F - 19.4 °F 28% 30.48 in 10.0 mi West 20.7 mph - N/A   Clear
7:14 PM 50.0 °F - 21.2 °F 32% 30.48 in 10.0 mi West 20.7 mph - N/A   Clear
7:34 PM 48.2 °F - 21.2 °F 34% 30.49 in 10.0 mi West 15.0 mph - N/A   Clear
7:54 PM 46.4 °F 39.2 °F 21.2 °F 37% 30.49 in 10.0 mi West 18.4 mph - N/A   Clear
8:14 PM 46.4 °F 39.2 °F 21.2 °F 37% 30.49 in 10.0 mi West 18.4 mph - N/A   Clear
8:34 PM 46.4 °F 39.5 °F 21.2 °F 37% 30.50 in 10.0 mi West 17.3 mph - N/A   Clear
8:54 PM 46.4 °F 40.1 °F 21.2 °F 37% 30.50 in 10.0 mi West 15.0 mph - N/A   Clear
9:14 PM 46.4 °F 44.3 °F 21.2 °F 37% 30.51 in 10.0 mi WSW 4.6 mph - N/A   Clear
9:34 PM 46.4 °F 41.9 °F 19.4 °F 34% 30.50 in 10.0 mi West 9.2 mph - N/A   Clear
9:54 PM 46.4 °F 44.3 °F 17.6 °F 32% 30.50 in 10.0 mi WSW 4.6 mph - N/A   Clear
10:14 PM 44.6 °F 38.1 °F 19.4 °F 37% 30.50 in 10.0 mi West 13.8 mph - N/A   Clear
10:34 PM 44.6 °F 41.4 °F 17.6 °F 34% 30.50 in 10.0 mi WSW 5.8 mph - N/A   Clear
10:54 PM 46.4 °F 43.5 °F 17.6 °F 32% 30.51 in 10.0 mi SSW 5.8 mph - N/A   Clear
11:14 PM 46.4 °F 43.5 °F 17.6 °F 32% 30.50 in 10.0 mi SW 5.8 mph - N/A   Clear
11:34 PM 44.6 °F 42.2 °F 12.2 °F 27% 30.50 in 10.0 mi SW 4.6 mph - N/A   Clear
11:54 PM 46.4 °F 44.3 °F 10.4 °F 23% 30.50 in 10.0 mi SSW 4.6 mph - N/A   Clear